Date String (YYYY-MM-DD hh:mm:ss) UTC,Instrument flags,absolute air pressure of the measurement (hPa),sample flow rate (lpm),inlet stack bypass flow (lpm),air temperature of the measurement (°C),ambient temperature measured by the external sensor (°C),aerosol sample conditioner tube jacket temperature (°C),OPC LED temperature (°C),internal box temperature (°C),relative humidity of the measurement (%),span deviation,mass concentration of particles derived from Lorenz-Mie calculation of OPC scattering (μg/m³),mass concentration of particles derived from Lorenz-Mie calculation of OPC scattering (μg/m³),mass concentration of particles derived from Lorenz-Mie calculation of OPC scattering (μg/m³)
DateTimeUTC,F1_M11,P_M11,Q1_M11,Q2_M11,T1_M11,T2_M11,T3_M11,T4_M11,T5_M11,U1_M11,ZSPAN_M11,X2_M11,X0_M11,X1_M11
2023-09-26 23:00:00,SystemResetWarning,0832.9,5.00,000.00,027.9,024.7,000.0,036.3,029.5,16.2,0001.3,0005.51,0021.36,0004.02
2023-09-26 23:01:00,SystemResetWarning,0832.9,5.00,000.00,027.9,025.1,000.0,036.3,029.5,16.4,0001.2,0005.48,0021.12,0004.04
2023-09-26 23:02:00,SystemResetWarning,0832.8,5.00,000.00,027.9,025.6,000.0,036.3,029.6,16.3,0001.0,0005.47,0021.47,0004.06
2023-09-26 23:03:00,SystemResetWarning,0833.1,5.00,000.00,027.9,026.0,000.0,036.3,029.7,16.4,0000.6,0005.47,0021.85,0004.07
2023-09-26 23:04:00,SystemResetWarning,0833.2,5.00,000.00,028.0,026.3,000.0,036.3,029.8,16.3,0000.4,0005.48,0020.84,0004.07
2023-09-26 23:05:00,SystemResetWarning,0833.2,5.00,000.00,028.0,026.7,000.0,036.4,029.9,16.2,0000.6,0005.50,0020.80,0004.08
2023-09-26 23:06:00,SystemResetWarning,0833.4,5.00,000.00,028.1,026.9,000.0,036.4,030.0,16.3,0000.8,0005.49,0020.02,0004.10
2023-09-26 23:07:00,SystemResetWarning,0833.3,4.99,000.00,028.1,026.8,000.0,036.4,030.0,16.5,0000.5,0005.44,0018.79,0004.11
2023-09-26 23:08:00,SystemResetWarning,0833.1,4.99,000.00,028.1,025.1,000.0,036.4,029.8,16.7,0000.0,0005.42,0019.00,0004.12
2023-09-26 23:09:00,SystemResetWarning,0832.8,5.01,000.00,028.0,024.3,000.0,036.3,029.7,16.4,0000.0,0005.45,0019.19,0004.13
2023-09-26 23:10:00,SystemResetWarning,0833.0,5.01,000.00,028.0,024.5,000.0,036.3,029.6,16.4,0000.0,0005.46,0019.79,0004.14
2023-09-26 23:11:00,SystemResetWarning,0832.8,4.99,000.00,027.9,024.9,000.0,036.3,029.5,16.7,0000.0,0005.51,0021.24,0004.15
2023-09-26 23:13:00,SystemResetWarning,0833.4,4.99,000.00,027.9,025.9,000.0,036.3,029.7,16.6,0000.0,0005.58,0020.12,0004.15
2023-09-26 23:14:00,SystemResetWarning,0833.3,5.01,000.00,028.0,026.2,000.0,036.4,029.8,16.4,0000.0,0005.61,0020.06,0004.14
2023-09-26 23:15:00,SystemResetWarning,0833.1,5.01,000.00,028.0,026.6,000.0,036.4,029.9,16.2,0000.0,0005.63,0021.58,0004.15
2023-09-26 23:16:00,SystemResetWarning,0833.1,4.99,000.00,028.1,026.9,000.0,036.4,030.0,16.1,0000.0,0005.63,0022.19,0004.15
2023-09-26 23:17:00,SystemResetWarning,0832.9,4.99,000.00,028.1,026.9,000.0,036.4,030.1,15.9,0000.0,0005.66,0021.58,0004.16
2023-09-26 23:18:00,SystemResetWarning,0833.2,4.99,000.00,028.1,025.5,000.0,036.4,029.8,15.9,0000.0,0005.58,0020.90,0004.16
2023-09-26 23:19:00,SystemResetWarning,0833.4,5.01,000.00,028.0,024.4,000.0,036.3,029.6,16.0,0000.0,0005.54,0020.60,0004.15
2023-09-26 23:20:00,SystemResetWarning,0833.5,5.01,000.00,028.0,024.5,000.0,036.3,029.6,16.0,0000.0,0005.48,0021.38,0004.14
2023-09-26 23:21:00,SystemResetWarning,0833.2,4.99,000.00,027.9,024.8,000.0,036.3,029.5,16.1,0000.0,0005.51,0020.48,0004.14
2023-09-26 23:22:00,SystemResetWarning,0833.4,4.99,000.00,027.9,025.3,000.0,036.3,029.6,16.0,0000.0,0005.49,0019.77,0004.13
2023-09-26 23:23:00,SystemResetWarning,0833.4,5.01,000.00,027.9,025.7,000.0,036.3,029.6,16.0,0000.0,0005.45,0019.47,0004.12
2023-09-26 23:24:00,SystemResetWarning,0833.3,5.01,000.00,027.9,026.1,000.0,036.3,029.7,16.1,0000.0,0005.46,0020.51,0004.11
2023-09-26 23:25:00,SystemResetWarning,0832.9,5.00,000.00,028.0,026.5,000.0,036.4,029.8,16.0,0000.0,0005.47,0021.87,0004.11
2023-09-26 23:26:00,SystemResetWarning,0833.1,5.00,000.00,028.0,026.8,000.0,036.4,029.9,16.0,0000.0,0005.47,0022.24,0004.11
2023-09-26 23:27:00,SystemResetWarning,0832.9,5.00,000.00,028.1,027.0,000.0,036.4,030.0,16.0,0000.0,0005.56,0021.63,0004.10
2023-09-26 23:28:00,SystemResetWarning,0832.9,4.99,000.00,028.2,026.5,000.0,036.4,030.0,16.1,0000.0,0005.60,0021.73,0004.08
2023-09-26 23:29:00,SystemResetWarning,0833.3,5.00,000.00,028.1,024.9,000.0,036.4,029.8,16.1,0000.0,0005.65,0021.96,0004.08
2023-09-26 23:30:00,SystemResetWarning,0833.5,5.02,000.00,028.0,024.2,000.0,036.3,029.7,16.2,0000.0,0005.70,0021.91,0004.09
2023-09-26 23:31:00,SystemResetWarning,0833.4,5.00,000.00,028.0,024.5,000.0,036.3,029.6,16.3,0000.0,0005.73,0020.46,0004.10
2023-09-26 23:32:00,SystemResetWarning,0833.2,5.01,000.00,027.9,024.9,000.0,036.3,029.5,16.4,0000.0,0005.77,0019.95,0004.11
2023-09-26 23:33:00,SystemResetWarning,0833.2,5.00,000.00,027.9,025.3,000.0,036.3,029.6,16.6,0000.0,0005.77,0019.27,0004.11
2023-09-26 23:34:00,SystemResetWarning,0833.2,5.00,000.00,027.9,025.8,000.0,036.3,029.7,16.5,0000.0,0005.76,0020.49,0004.12
2023-09-26 23:35:00,SystemResetWarning,0833.1,5.00,000.00,028.0,026.2,000.0,036.3,029.8,16.5,0000.0,0005.75,0020.53,0004.14
2023-09-26 23:36:00,SystemResetWarning,0832.9,5.00,000.00,028.0,026.5,000.0,036.4,029.9,16.7,0000.0,0005.73,0018.89,0004.13
2023-09-26 23:37:00,SystemResetWarning,0832.9,5.01,000.00,028.1,026.8,000.0,036.4,030.0,16.5,0000.0,0005.75,0019.05,0004.14
2023-09-26 23:38:00,SystemResetWarning,0832.9,5.00,000.00,028.1,027.1,000.0,036.4,030.1,16.0,0000.0,0005.70,0018.35,0004.15
2023-09-26 23:39:00,SystemResetWarning,0832.9,4.99,000.00,028.2,026.9,000.0,036.4,030.1,15.9,0000.0,0005.66,0018.74,0004.16
2023-09-26 23:40:00,SystemResetWarning,0833.1,4.99,000.00,028.2,025.2,000.0,036.4,029.9,16.1,0000.0,0005.70,0020.01,0004.17
2023-09-26 23:41:00,SystemResetWarning,0833.3,5.02,000.00,028.1,024.3,000.0,036.3,029.7,15.9,0000.0,0005.72,0020.18,0004.17
2023-09-26 23:42:00,SystemResetWarning,0833.2,5.00,000.00,028.0,024.5,000.0,036.3,029.6,16.0,0000.0,0005.74,0020.33,0004.17
2023-09-26 23:43:00,SystemResetWarning,0833.2,5.01,000.00,027.9,024.9,000.0,036.3,029.5,16.0,0000.0,0005.74,0020.64,0004.16
2023-09-26 23:44:00,SystemResetWarning,0833.3,4.99,000.00,027.9,025.3,000.0,036.3,029.6,16.0,0000.0,0005.73,0020.81,0004.16
2023-09-26 23:45:00,SystemResetWarning,0832.9,5.00,000.00,027.9,025.7,000.0,036.3,029.7,15.6,0000.0,0005.70,0019.96,0004.16
2023-09-26 23:46:00,SystemResetWarning,0832.9,5.01,000.00,028.0,026.1,000.0,036.4,029.8,15.7,0000.0,0005.73,0019.01,0004.17
2023-09-26 23:47:00,SystemResetWarning,0832.9,5.00,000.00,028.0,026.4,000.0,036.4,029.9,15.6,0000.0,0005.76,0018.92,0004.18
2023-09-26 23:48:00,SystemResetWarning,0832.9,5.00,000.00,028.1,026.7,000.0,036.4,030.0,15.6,0000.0,0005.76,0018.10,0004.18
2023-09-26 23:49:00,SystemResetWarning,0832.9,4.99,000.00,028.1,027.0,000.0,036.4,030.0,15.8,0000.0,0005.73,0017.63,0004.18
2023-09-26 23:50:00,SystemResetWarning,0833.0,4.98,000.00,028.2,026.3,000.0,036.4,030.0,15.9,0000.0,0005.76,0018.55,0004.18
2023-09-26 23:51:00,SystemResetWarning,0832.9,5.00,000.00,028.1,024.6,000.0,036.4,029.8,16.2,0000.0,0005.73,0017.12,0004.17
2023-09-26 23:52:00,SystemResetWarning,0832.9,5.01,000.00,028.0,024.2,000.0,036.3,029.7,16.5,0000.0,0005.74,0017.47,0004.17
2023-09-26 23:53:00,SystemResetWarning,0832.8,5.01,000.00,028.0,024.5,000.0,036.3,029.6,17.2,0000.0,0005.78,0018.13,0004.17
2023-09-26 23:54:00,SystemResetWarning,0833.1,5.00,000.00,027.9,024.9,000.0,036.3,029.5,17.4,0000.0,0005.74,0018.62,0004.17
2023-09-26 23:55:00,SystemResetWarning,0832.9,5.00,000.00,027.9,025.3,000.0,036.3,029.6,17.4,0000.0,0005.80,0019.80,0004.18
2023-09-26 23:56:00,SystemResetWarning,0832.9,5.00,000.00,027.9,025.7,000.0,036.3,029.7,17.5,0001.2,0005.86,0018.74,0004.19
2023-09-26 23:57:00,SystemResetWarning,0832.9,5.00,000.00,028.0,026.2,000.0,036.3,029.8,17.2,0000.0,0005.86,0019.49,0004.19
2023-09-26 23:58:00,SystemResetWarning,0833.0,5.00,000.00,028.0,026.5,000.0,036.4,029.9,16.8,0001.3,0005.85,0020.09,0004.18
2023-09-26 23:59:00,SystemResetWarning,0833.0,5.00,000.00,028.1,026.8,000.0,036.4,030.0,16.9,0002.2,0005.85,0020.55,0004.17
